Location: Peterborough
(44.3091°N, 78.3197°W)
Time: 06:41:27
(UTC-04:00)

A-11 Canister half - Pass Details

Date: 26 March 2023
Orbit: 1513 x 1686 km, 47.2° (Epoch: 04 June)

Event Time Altitude Azimuth Distance (km) Brightness Sun altitude
Exits shadow 05:19:36 17° 282° (WNW) 3,394 10.3 -19.2°
Maximum altitude 05:26:46 41° 223° (SW) 2,273 9.4 -18.1°
Drops below altitude 10° 05:35:54 10° 158° (SSE) 3,902 11.1 -16.5°
Sets 05:39:14 0° 151° (SSE) 4,869 11.8 -16.0°
